KB1JDX Weather Reports


time (UTC)temp
C
wind
direction
speed
KPH
gust
KPH
rain 1hr
cm
rain 24hr
cm
rain mn
cm
humidity
%
barometer
mb
20260507200037 17 289 0.0 19.3 0.00 0.58 0.48 36 1005.9
20260507194037 18 110 0.0 19.3 0.00 0.58 0.48 34 1005.8
20260507192037 17 302 0.0 19.3 0.00 0.69 0.48 34 1006.2
20260507191927 17 36 0.0 19.3 0.00 0.69 0.48 34 1006.2
20260507190037 17 302 8.0 16.1 0.00 0.74 0.48 35 1006.4
20260507182037 17 313 9.7 16.1 0.00 0.76 0.48 35 1006.6
20260507181927 17 318 11.3 16.1 0.00 0.76 0.48 35 1006.6
20260507180037 17 294 0.0 14.5 0.00 0.76 0.48 35 1006.9
20260507174036 17 193 0.0 14.5 0.00 0.76 0.48 37 1007.1
20260507172037 17 355 0.0 14.5 0.00 0.76 0.48 41 1007.2
20260507171927 16 24 0.0 14.5 0.00 0.76 0.48 40 1007.1
20260507170037 16 306 0.0 16.1 0.00 0.76 0.48 40 1007.3
20260507164035 16 349 0.0 16.1 0.00 0.76 0.48 40 1007.6
20260507162037 16 53 0.0 16.1 0.00 0.76 0.48 40 1007.8
20260507161927 16 33 9.7 16.1 0.00 0.76 0.48 41 1007.9
20260507160037 15 308 0.0 9.7 0.00 0.76 0.48 42 1008.0
20260507154037 15 320 0.0 9.7 0.00 0.76 0.48 56 1008.2
20260507152037 15 323 0.0 9.7 0.00 0.76 0.48 58 1008.2
20260507151927 15 324 0.0 9.7 0.00 0.76 0.48 58 1008.2
20260507150038 15 319 0.0 0.0 0.00 0.76 0.48 64 1008.3
20260507144038 13 335 0.0 0.0 0.00 0.76 0.48 64 1008.4
20260507142036 13 301 0.0 0.0 0.00 0.76 0.48 65 1008.5
20260507141927 13 301 8.0 0.0 0.00 0.76 0.48 64 1008.4
20260507140036 12 317 0.0 0.0 0.00 0.76 0.48 66 1008.6
20260507134037 11 317 0.0 0.0 0.00 0.76 0.48 59 1008.6
20260507132036 11 301 0.0 0.0 0.00 0.76 0.48 30 1008.7
20260507131927 11 299 0.0 0.0 0.00 0.76 0.48 28 1008.7
20260507130035 10 295 0.0 0.0 0.00 0.76 0.48 100 1009.0
20260507124035 10 294 0.0 0.0 0.00 0.76 0.48 100 1008.6
20260507122036 10 294 0.0 0.0 0.00 0.76 0.48 100 1008.7
20260507121927 10 294 0.0 0.0 0.00 0.76 0.48 100 1008.7
20260507114036 9 294 0.0 0.0 0.05 0.76 0.48 100 1008.4
20260507112036 9 294 0.0 0.0 0.05 0.76 0.48 100 1008.3
20260507111927 9 294 0.0 0.0 0.05 0.76 0.48 100 1008.5
20260507110036 9 294 0.0 0.0 0.13 0.71 0.43 100 1008.4
20260507104038 9 294 0.0 0.0 0.13 0.71 0.43 100 1008.1
20260507102036 9 294 0.0 0.0 0.13 0.71 0.43 100 1007.7
20260507101927 9 294 0.0 0.0 0.13 0.71 0.43 100 1007.6
20260507100038 10 294 0.0 11.3 0.08 0.58 0.30 100 1007.6
20260507094037 10 294 0.0 11.3 0.08 0.58 0.30 100 1007.7
20260507092036 10 294 0.0 11.3 0.08 0.58 0.30 100 1007.5
20260507091927 10 294 0.0 11.3 0.08 0.58 0.30 100 1007.6
20260507090036 10 294 0.0 0.0 0.23 0.51 0.23 100 1007.5
20260507084036 10 307 0.0 0.0 0.23 0.51 0.23 100 1007.2
20260507082036 10 307 0.0 0.0 0.23 0.51 0.23 1 1007.3
20260507081927 10 307 0.0 0.0 0.23 0.51 0.23 1 1007.4
20260507080036 11 307 0.0 0.0 0.00 0.28 0.00 1 1007.4
20260507074036 11 307 0.0 0.0 0.00 0.28 0.00 6 1007.7
20260507072037 11 307 0.0 0.0 0.00 0.28 0.00 15 1007.9
20260507071927 11 307 0.0 0.0 0.00 0.28 0.00 15 1007.7
20260507070036 11 307 0.0 0.0 0.00 0.28 0.00 17 1006.9
20260507062036 12 210 0.0 0.0 0.00 0.28 0.00 100 1006.7
20260507061927 12 210 0.0 0.0 0.00 0.28 0.00 100 1006.8
20260507060035 12 210 0.0 0.0 0.00 0.28 0.00 100 1006.5
20260507054035 13 210 0.0 0.0 0.00 0.28 0.00 100 1006.7
20260507052036 13 210 0.0 0.0 0.00 0.28 0.00 100 1007.1
20260507051927 13 210 0.0 0.0 0.00 0.28 0.00 100 1007.1
20260507050035 13 210 0.0 0.0 0.00 0.28 0.00 100 1007.2
20260507044035 13 210 0.0 0.0 0.00 0.28 0.00 100 1007.0
20260507042035 13 210 0.0 0.0 0.00 0.28 0.00 100 1007.1
20260507041927 13 210 0.0 0.0 0.00 0.28 0.00 100 1007.1
20260507040036 14 210 0.0 0.0 0.00 0.28 0.28 100 1007.1
20260507034036 14 210 0.0 0.0 0.00 0.28 0.28 100 1006.9
20260507032036 14 210 0.0 0.0 0.00 0.28 0.28 100 1006.7
20260507031927 14 210 0.0 0.0 0.00 0.28 0.28 100 1006.7
20260507030036 14 210 0.0 8.0 0.00 0.28 0.28 100 1006.9
20260507024035 14 231 0.0 8.0 0.00 0.28 0.28 100 1006.8
20260507022036 13 204 0.0 8.0 0.00 0.28 0.28 100 1006.8
20260507021927 13 205 0.0 8.0 0.00 0.28 0.28 100 1006.8
20260507020035 13 238 11.3 6.4 0.00 0.28 0.28 100 1006.9
20260507014035 13 196 0.0 6.4 0.00 0.28 0.28 100 1006.8
20260507012035 13 192 0.0 6.4 0.00 0.28 0.28 100 1006.7
20260507011927 13 192 0.0 6.4 0.00 0.28 0.28 100 1006.8
20260507010036 13 184 0.0 19.3 0.00 0.28 0.28 100 1007.0
20260507004035 13 220 0.0 19.3 0.00 0.28 0.28 100 1007.2
20260507002035 13 202 0.0 19.3 0.00 0.28 0.28 100 1007.0
20260507001927 13 202 0.0 19.3 0.00 0.28 0.28 100 1007.0
20260507000035 13 221 0.0 16.1 0.05 0.28 0.28 100 1006.8
20260506234035 13 193 0.0 16.1 0.05 0.28 0.28 100 1006.9
20260506232035 13 213 0.0 16.1 0.05 0.28 0.28 100 1006.6
20260506231927 13 213 0.0 16.1 0.05 0.28 0.28 100 1006.6
20260506230035 14 244 0.0 19.3 0.03 0.23 0.23 100 1006.6
20260506222035 14 173 0.0 19.3 0.03 0.23 0.23 100 1006.5
20260506221927 14 213 6.4 19.3 0.03 0.23 0.23 100 1006.5
20260506220035 14 244 8.0 29.0 0.00 0.20 0.20 100 1006.4
20260506214035 14 210 0.0 29.0 0.00 0.20 0.20 100 1006.8
20260506212036 14 184 0.0 29.0 0.00 0.20 0.20 100 1006.9
20260506211927 14 184 0.0 29.0 0.00 0.20 0.20 100 1006.9
20260506210035 15 182 0.0 20.9 0.13 0.20 0.20 100 1007.0
20260506201927 15 186 12.9 20.9 0.13 0.20 0.20 100 1007.5